SAUDICOMSAT 7

Last updated on Sun Jun 21 2026 00:03:22 GMT+0000 (Coordinated Universal Time)

1 31119U 07012C 26171.38870382 .00000320 00000+0 66514-4 0 9991 2 31119 98.3778 145.5859 0055526 185.1036 174.9608 14.66112576 22900
UTC large
Height (km)
Speed (km/s)
/
Latitude / Longitude
Inclination (degrees)
Orbital Period (minutes)
Azimuth
Elevation
Range (km)
Doppler Factor

Next 0 passes for location: London (51.5072 / 0.1276)

No passes found over London.
SAUDICOMSAT 7